Location: Casteau
(50.5142°N, 4.0161°E)
Time: 20:58:40
(UTC+00:00)

Tiros 1 - Pass Details

Date: 03 August 2021
Orbit: 630 x 663 km, 48.4° (Epoch: 28 September)

Event Time Altitude Azimuth Distance (km) Brightness Sun altitude
Rises 20:36:10 0° 274° (W) 2,979 11.4 -10.0°
Reaches altitude 10° 20:38:32 10° 271° (W) 2,062 10.5 -10.3°
Maximum altitude 20:43:13 61° 192° (SSW) 738 7.3 -10.8°
Enters shadow 20:47:12 14° 114° (ESE) 1,793 8.9 -11.2°
Drops below altitude 10° 20:47:51 10° 113° (ESE) 2,037 - -11.3°
Sets 20:50:11 0° 109° (ESE) 2,940 - -11.6°
